Location: Street
(51.1247°N, 2.7429°W)
Time: 06:07:43
(UTC+00:00)

SR - Pass Details

Date: 05 December 2020
Orbit: 575 x 880 km, 66.7° (Epoch: 25 January)

Event Time Altitude Azimuth Distance (km) Brightness Sun altitude
Rises 23:58:47 0° 322° (NW) 3,120 - -61.3°
Reaches altitude 10° 00:01:18 10° 333° (NNW) 2,249 - -61.3°
Maximum altitude 00:05:57 33° 37° (NE) 1,298 - -61.3°
Drops below altitude 10° 00:10:57 10° 101° (E) 2,418 - -61.2°
Sets 00:13:44 0° 111° (ESE) 3,389 - -61.2°
